Home   Weather   Frechen   Past weeks

Flag for Germany Past Weather in Frechen, North Rhine-Westphalia, Germany — Yesterday and Last 2 Weeks

45 °F

Partly cloudy.

Feels Like: 45 °F
Forecast: 41 / 50 °F
Wind: 2 mph from North

Location: Noervenich

Current Time: Oct 20, 2016 at 9:43:57 PM

Latest Report: Oct 20, 2016 at 8:20 PM

Visibility: N/A

Pressure: 29.92 "Hg

Humidity: 93%

Dew Point: 43 °F

Location of FrechenLocation

Past Weather in Frechen — Graph


Frechen Temperature Yesterday

Maximum temperature yesterday: 52 °F (at 12:20 PM)
Minimum temperature yesterday: 45 °F (at 5:20 AM)
Average temperature yesterday: 48 °F

High & Low Weather Summary for the Past Weeks

High68 °F (Oct 16, 3:20 PM)100% (Oct 11, 6:20 AM)30.39 "Hg (Oct 11, 6:20 AM)
Low37 °F (Oct 6, 6:20 AM)48% (Oct 8, 3:20 PM)29.65 "Hg (Oct 15, 2:20 AM)
Average49 °F82%30.08 "Hg
* Reported Oct 5 8:20 PM — Oct 20 8:20 PM, Frechen, Weather by CustomWeather, © 2016

Note: Actual official high and low records may vary slightly from our data, if they occured in-between our weather recording intervals... More about our weather records


Frechen Weather History for the Previous 24 Hours

Scroll right to see more
Time TempWeatherWind HumidityBarometerVisibility
8:20 PM
Thu, Oct 20
45 °FPartly cloudy.2 mph93%29.92 "HgN/A
7:46 PM45 °FPartly cloudy.2 mph93%29.92 "Hg6 mi
7:20 PM45 °FPartly cloudy.3 mph100%29.92 "Hg4 mi
6:47 PM45 °FFog.7 mph100%29.89 "Hg3 mi
6:20 PM46 °FRain. Fog.6 mph93%29.89 "Hg3 mi
5:20 PM46 °FRain showers. Fog.3 mph93%29.89 "Hg2 mi
4:49 PM46 °FRain. Fog.5 mph93%29.86 "Hg2 mi
4:20 PM46 °FLight rain. Fog.6 mph93%29.86 "Hg3 mi
4:03 PM46 °FLight rain. Fog.5 mph100%29.86 "Hg3 mi
3:20 PM46 °FRain. Fog.3 mph93%29.86 "Hg2 mi
2:20 PM46 °FRain. Fog.3 mph93%29.89 "Hg2 mi
1:20 PM46 °FRain. Fog.2 mph93%29.92 "Hg2 mi
12:20 PM46 °FRain. Fog.6 mph93%29.92 "Hg2 mi
11:20 AM46 °FRain. Fog.6 mph93%29.92 "Hg2 mi
10:20 AM46 °FLight rain. Fog.7 mph93%29.92 "Hg2 mi
9:20 AM46 °FFog.8 mph93%29.92 "Hg3 mi
8:20 AM46 °FDrizzle. Fog.8 mph100%29.89 "Hg3 mi
7:20 AM46 °FFog.8 mph100%29.89 "Hg3 mi
6:20 AM45 °FLight rain. Fog.1 mph100%29.89 "Hg2 mi
5:20 AM45 °FRain. Fog.6 mph100%29.89 "Hg2 mi
4:20 AM45 °FRain. Fog.5 mph100%29.89 "Hg3 mi
3:20 AM46 °FRain. Fog.6 mph93%29.95 "Hg3 mi
2:20 AM46 °FLight rain. Overcast.6 mph87%29.95 "Hg4 mi
1:20 AM45 °FPassing clouds.7 mph93%29.98 "Hg6 mi
12:20 AM45 °FPassing clouds.7 mph93%29.98 "HgN/A
11:20 PM
Wed, Oct 19
46 °FPartly cloudy.6 mph87%29.98 "HgN/A
10:20 PM46 °FPartly cloudy.7 mph87%29.98 "HgN/A
10:02 PM48 °FPartly cloudy.8 mph82%29.98 "HgN/A
9:20 PM48 °FPartly cloudy.7 mph87%29.98 "HgN/A
Weather by CustomWeather, © 2016

See weather overviewHow to use our weather pages